TimeEDT,TemperatureF,Dew PointF,Humidity,Sea Level PressureIn,VisibilityMPH,Wind Direction,Wind SpeedMPH,Gust SpeedMPH,PrecipitationIn,Events,Conditions,WindDirDegrees,DateUTC
12:53 AM,54.0,51.1,90,29.67,4.0,NE,17.3,23.0,0.01,Rain,Light Rain,40,2012-10-29 04:53:00
12:57 AM,53.6,51.8,94,29.67,3.0,NE,17.3,25.3,0.00,Rain,Light Rain,50,2012-10-29 04:57:00
1:03 AM,53.6,51.8,94,29.67,3.0,NE,19.6,25.3,0.00,Rain,Light Rain,50,2012-10-29 05:03:00
1:05 AM,53.6,51.8,94,29.67,2.5,NE,19.6,25.3,0.00,Rain,Light Rain,50,2012-10-29 05:05:00
1:10 AM,53.6,51.8,94,29.67,3.0,NE,16.1,25.3,0.00,Rain,Light Rain,50,2012-10-29 05:10:00
1:22 AM,53.6,51.8,94,29.66,10.0,NE,18.4,28.8,0.00,,Overcast,50,2012-10-29 05:22:00
1:53 AM,55.0,52.0,89,29.64,4.0,NE,20.7,31.1,0.00,Rain,Light Rain,50,2012-10-29 05:53:00
2:53 AM,55.0,52.0,89,29.61,2.5,NE,19.6,32.2,0.00,Rain,Light Rain,50,2012-10-29 06:53:00
3:00 AM,55.4,51.8,88,29.61,4.0,NE,20.7,32.2,0.00,,Overcast,50,2012-10-29 07:00:00
3:16 AM,55.4,51.8,88,29.60,2.5,NE,16.1,31.1,0.00,Rain,Light Rain,40,2012-10-29 07:16:00
3:30 AM,55.4,51.8,88,29.58,1.8,NE,19.6,27.6,0.00,Rain,Light Rain,40,2012-10-29 07:30:00
3:39 AM,55.4,51.8,88,29.58,2.5,NE,18.4,29.9,0.00,Rain,Light Rain,50,2012-10-29 07:39:00
3:53 AM,55.0,53.1,93,29.57,2.0,NE,18.4,31.1,0.01,Rain,Light Rain,40,2012-10-29 07:53:00
4:01 AM,55.4,53.6,94,29.56,3.0,NE,19.6,27.6,0.00,Rain,Light Rain,40,2012-10-29 08:01:00
4:17 AM,55.4,53.6,94,29.55,2.5,NE,20.7,36.8,0.00,Rain,Light Rain,40,2012-10-29 08:17:00
4:51 AM,55.4,53.6,94,29.54,2.5,NE,17.3,32.2,0.00,Rain,Light Rain,40,2012-10-29 08:51:00
4:52 AM,55.0,53.1,93,29.54,2.5,NE,19.6,32.2,0.00,Rain,Light Rain,40,2012-10-29 08:52:00
5:53 AM,55.9,53.1,90,29.51,2.5,NE,21.9,33.4,0.02,Rain,Light Rain,50,2012-10-29 09:53:00
6:53 AM,55.9,54.0,93,29.49,2.0,NE,20.7,29.9,0.01,Rain,Light Rain,40,2012-10-29 10:53:00
7:53 AM,57.0,55.0,93,29.46,2.0,NE,25.3,36.8,0.01,Rain,Light Rain,50,2012-10-29 11:53:00
8:53 AM,57.0,55.0,93,29.44,2.0,NE,26.5,35.7,0.03,Rain,Light Rain,50,2012-10-29 12:53:00
9:53 AM,57.9,55.9,93,29.40,1.2,NE,27.6,38.0,0.03,Rain,Light Rain,50,2012-10-29 13:53:00
10:53 AM,59.0,57.0,93,29.35,1.2,NE,26.5,34.5,0.02,Rain,Light Rain,50,2012-10-29 14:53:00
11:53 AM,60.1,57.9,93,29.28,1.0,NE,31.1,47.2,0.06,Rain,Rain,50,2012-10-29 15:53:00
12:49 PM,60.8,57.2,88,29.22,1.5,NE,34.5,46.0,0.08,Rain,Light Rain,50,2012-10-29 16:49:00
12:53 PM,61.0,57.9,90,29.21,1.8,NE,32.2,47.2,0.08,Rain,Light Rain,50,2012-10-29 16:53:00
1:09 PM,60.8,57.2,88,29.20,2.5,ENE,29.9,47.2,0.02,Rain,Light Rain,70,2012-10-29 17:09:00
1:18 PM,60.8,57.2,88,29.19,4.0,ENE,32.2,47.2,0.02,Rain,Light Rain,60,2012-10-29 17:18:00
1:53 PM,62.1,57.9,86,29.16,4.0,ENE,32.2,51.8,0.02,Rain,Light Rain,60,2012-10-29 17:53:00
2:53 PM,62.1,59.0,90,29.09,2.0,ENE,34.5,52.9,0.01,Rain,Light Rain,70,2012-10-29 18:53:00
3:53 PM,64.4,60.8,88,29.07,2.0,ENE,32.2,46.0,N/A,Rain,Light Rain,70,2012-10-29 19:53:00
4:36 PM,66.2,60.8,83,29.07,2.0,East,36.8,55.2,0.01,,Haze,80,2012-10-29 20:36:00
4:53 PM,66.0,61.0,84,29.09,2.0,East,33.4,54.1,0.03,Rain,Light Rain,90,2012-10-29 20:53:00
5:00 PM,66.2,60.8,83,29.10,6.0,East,31.1,47.2,0.00,,Haze,90,2012-10-29 21:00:00
5:49 PM,66.2,62.6,88,29.12,3.0,East,29.9,47.2,0.01,,Overcast,80,2012-10-29 21:49:00
5:53 PM,66.0,62.1,87,29.13,3.0,East,27.6,46.0,0.01,,Overcast,100,2012-10-29 21:53:00
6:30 PM,66.2,60.8,83,29.14,6.0,East,29.9,43.7,N/A,,Haze,90,2012-10-29 22:30:00
6:53 PM,66.0,61.0,84,29.15,7.0,East,24.2,47.2,N/A,,Overcast,90,2012-10-29 22:53:00
7:46 PM,64.4,60.8,88,29.17,2.5,East,26.5,40.3,0.06,Rain,Rain,90,2012-10-29 23:46:00
7:53 PM,64.0,61.0,90,29.18,3.0,East,20.7,40.3,0.07,Rain,Rain,100,2012-10-29 23:53:00
8:44 PM,62.6,60.8,94,29.18,8.0,East,17.3,27.6,0.16,Rain,Light Rain,100,2012-10-30 00:44:00
8:53 PM,63.0,60.1,90,29.18,10.0,East,13.8,24.2,0.16,,Overcast,90,2012-10-30 00:53:00
9:44 PM,64.4,60.8,88,29.21,10.0,East,13.8,21.9,N/A,,Overcast,100,2012-10-30 01:44:00
9:53 PM,64.0,60.1,87,29.22,10.0,ESE,18.4,27.6,N/A,,Overcast,110,2012-10-30 01:53:00
10:06 PM,64.4,60.8,88,29.22,8.0,ESE,16.1,33.4,N/A,,Overcast,110,2012-10-30 02:06:00
10:53 PM,64.0,59.0,84,29.25,7.0,ESE,15.0,25.3,N/A,,Overcast,110,2012-10-30 02:53:00
11:53 PM,64.0,57.9,80,29.28,7.0,SE,15.0,20.7,N/A,,Overcast,130,2012-10-30 03:53:00